Location: Ohmer (historical)
(38.0096°N, 122.0227°W)
Time: 04:01:53
(UTC+00:00)

COSMOS 2455 - Pass Details

Date: 14 February 2026
Orbit: 899 x 909 km, 67.1° (Epoch: 7 March)

Event Time Altitude Azimuth Distance (km) Brightness Sun altitude
Exits shadow 12:27:33 75° 49° (NE) 940 2.9 -30.4°
Drops below altitude 10° 12:33:05 10° 29° (NNE) 2,598 5.6 -29.3°
Sets 12:35:35 0° 29° (NNE) 3,543 6.4 -28.8°
